Вернуться в каталог

FENGYUN 1C DEB

LostPO
NORAD 31827·DEBRIS·🇨🇳 China

Запущен May 10, 1999 с Taiyuan Satellite Launch Center

Loading…

Ближайшие Пролёты (ближайшие 24 часа)

TLE

УстаревшееSource: Space-Track

Эпоха: Mar 7, 2023, 01:09 UTC

1 31827U 99025CHR 23066.04828933  .00008112  00000-0  57982-2 0  9995
2 31827  97.6679 163.2872 0131278 175.9155 184.3114 13.93349209799214

Отслеживайте FENGYUN 1C DEB в реальном времени с AllMySat

Download on the App Store